[[{"header":{"parameterUnit":"m.s-1","parameterCategory":1,"la1":30.2991,"la2":30.254,"lo1":-89.0895,"lo2":-89.0444,"dx":0.0017,"dy":0.0017,"nx":28,"ny":28,"refTime":"2022-11-17T15:00:00:Z","depth":0,"parameterNumber":2,"parameterNumberName":"U-component_of_WINDS"},"data":[0,0,0,0,0,0,0,0,0,0,0,0,0,0,0,0,0,0,0,0,0,0,0,0,0,0,0,0,0,0,0,0,0,0,0,0,0,0,0,0,0,0,0,0,0,0,0,0,0,0,0,0,0,0,0,0,0,0,-3.2132,-3.2132,0,-3.2207,-3.2208,-3.2208,-3.2085,-3.2081,-3.2077,-3.2073,-3.2153,-3.2159,-3.2165,0,0,0,0,0,0,0,0,0,0,0,0,0,-3.1883,-3.1888,-3.2131,-3.2132,-3.2133,-3.2207,-3.2208,-3.2209,-3.2086,-3.2081,-3.2076,-3.2071,-3.2151,-3.2158,-3.2165,0,0,0,0,0,0,0,0,0,0,0,0,0,-3.1978,-3.189,-3.2131,-3.2081,-3.2077,-3.2206,-3.2208,-3.2209,-3.2087,-3.2081,-3.2074,-3.2068,-3.2149,-3.2157,-3.2166,-3.235,0,0,-3.2194,-3.2198,0,0,0,0,0,0,0,0,-3.1973,-3.1987,-3.2087,-3.2084,-3.208,-3.213,-3.2149,-3.2256,-3.2088,-3.2083,-3.2072,-3.2065,-3.2151,-3.2159,-3.2187,-3.2354,-3.2357,-3.2195,-3.2201,-3.2205,-3.2207,0,0,0,0,0,0,0,-3.1966,-3.1983,-3.2161,-3.2089,-3.2085,-3.2055,-3.2061,-3.2169,-3.2152,-3.2083,-3.2074,-3.2085,-3.2148,-3.2179,-3.2188,-3.2358,-3.2195,-3.2203,-3.2209,-3.2212,-3.2676,-3.2683,0,0,0,0,0,0,-3.1965,-3.1978,-3.2159,-3.2163,-3.201,-3.2064,-3.2072,-3.2121,-3.215,-3.2149,-3.209,-3.2079,-3.2166,-3.2178,-3.2191,-3.2406,-3.2205,-3.2213,-3.2218,-3.267,-3.2678,-3.2685,0,0,0,0,0,0,-3.1961,-3.1983,-3.2156,-3.2069,-3.2088,-3.2075,-3.2131,-3.2125,-3.2156,-3.2155,-3.2152,-3.2125,-3.2162,-3.2178,-3.231,-3.2407,-3.2217,-3.2226,-3.2662,-3.2672,-3.2682,-3.2839,0,0,0,0,0,0,-3.1954,-3.1982,-3.2051,-3.2071,-3.2093,-3.2275,-3.2137,-3.2131,-3.2172,-3.2158,-3.2187,-3.2186,-3.2158,-3.2298,-3.232,-3.2416,-3.2233,-3.2653,-3.2666,-3.2678,-3.2825,-3.2854,-3.2878,0,0,0,0,0,-3.1945,-3.2094,-3.2055,-3.2078,-3.218,-3.228,-3.2293,-3.2257,-3.218,-3.225,-3.2249,-3.2185,-3.2393,-3.2312,-3.2336,-3.2437,-3.2647,-3.2662,-3.2677,-3.2814,-3.2848,-3.2877,0,0,0,0,0,0,-3.2087,-3.2095,-3.2053,-3.2212,-3.2246,-3.2259,-3.2346,-3.2295,-3.2353,-3.2337,-3.229,-3.2298,-3.244,-3.2452,-3.2362,-3.2615,-3.2507,-3.2528,-3.2602,-3.2635,-3.2661,-3.2655,-3.224,0,0,0,0,0,-3.2136,-3.2217,-3.222,-3.236,-3.2379,-3.236,-3.2402,-3.2371,-3.2405,-3.242,-3.2428,-3.2465,-3.2537,-3.2587,-3.2654,-3.2826,-3.283,-3.2907,-3.2933,-3.2955,-3.2974,-3.3064,-3.3098,-3.2736,-3.2736,-3.2736,0,0,-3.224,-3.2254,-3.2308,-3.2388,-3.2411,-3.2496,-3.2373,-3.2468,-3.253,-3.2434,-3.2559,-3.2567,-3.2604,-3.2757,-3.2825,-3.2771,-3.3074,-3.2974,-3.2992,-3.2999,-3.3083,-3.3117,-3.3148,-3.2746,-3.2745,-3.2743,0,0,-3.2471,-3.2491,-3.2608,-3.2633,-3.2669,-3.2655,-3.2683,-3.2704,-3.2705,-3.2829,-3.2759,-3.2832,-3.2959,-3.2988,-3.302,-3.326,-3.3203,-3.3283,-3.3421,-3.3509,-3.3537,-3.3562,-3.3647,-3.3678,-3.3302,-3.3302,-3.3302,0,-3.2596,-3.2719,-3.2676,-3.2775,-3.2812,-3.2727,-3.2846,-3.2873,-3.2929,-3.2957,-3.2895,-3.3052,-3.3071,-3.3229,-3.3287,-3.3316,-3.3346,-3.328,-3.3537,-3.3561,-3.3584,-3.3664,-3.3697,-3.3312,-3.3311,-3.331,-3.3309,0,-3.287,-3.2957,-3.3048,-3.3102,-3.3149,-3.3259,-3.3231,-3.3285,-3.3249,-3.3242,-3.3369,-3.3389,-3.3458,-3.3493,-3.346,-3.3645,-3.3611,-3.3544,-3.3435,-3.3629,-3.3703,-3.3734,-3.3325,-3.3322,-3.3319,-3.3317,0,0,-3.3194,-3.3221,-3.3256,-3.3279,-3.3311,-3.3377,-3.3482,-3.3548,-3.3594,-3.3635,-3.3722,-3.383,-3.3768,-3.3804,-3.3773,-3.3851,-3.4038,-3.3774,-3.3774,-3.3822,-3.4243,-3.4293,-3.4329,-3.4,-3.4006,-3.4011,-3.4239,0,-3.3423,-3.3602,-3.3565,-3.3741,-3.382,-3.374,-3.3831,-3.3861,-3.3856,-3.3923,-3.3918,-3.3995,-3.3908,-3.3928,-3.4002,-3.4,-3.4122,-3.3983,-3.408,-3.4084,-3.4073,-3.4368,-3.4421,-3.4636,-3.4268,-3.4273,-3.4277,0,-3.3715,-3.3766,-3.3949,-3.3967,-3.3998,-3.4081,-3.4137,-3.4202,-3.4234,-3.4225,-3.4264,-3.4218,-3.4321,-3.421,-3.4352,-3.4258,-3.4296,-3.4301,-3.4308,-3.4316,-3.4192,-3.4383,-3.4704,-3.4736,-3.4323,-3.4319,-3.4316,0,-3.3932,-3.4046,-3.417,-3.4192,-3.4216,-3.4276,-3.4289,-3.4314,-3.4355,-3.4405,-3.4431,-3.4493,-3.4527,-3.4576,-3.4548,-3.447,-3.4694,-3.4581,-3.469,-3.4691,-3.4741,-3.4738,-3.5072,-3.4766,-3.4766,-3.4765,-3.4764,0,-3.4192,-3.4307,-3.4267,-3.4344,-3.447,-3.4426,-3.4552,-3.4556,-3.4579,-3.4654,-3.4589,-3.4662,-3.462,-3.4689,-3.4667,-3.4787,-3.4804,-3.4799,-3.4792,-3.4805,-3.4805,-3.4829,-3.4813,-3.4773,-3.4772,-3.477,-3.4768,0,-3.4456,-3.4434,-3.4563,-3.4574,-3.458,-3.4673,-3.4682,-3.4753,-3.4743,-3.4839,-3.4859,-3.4844,-3.4922,-3.4898,-3.4983,-3.4968,-3.512,-3.5094,-3.5109,-3.5102,-3.5211,-3.5201,-3.5572,-3.5617,-3.5283,-3.5286,-3.5289,0,-3.4623,-3.4709,-3.4729,-3.4774,-3.4791,-3.4866,-3.4907,-3.4867,-3.4913,-3.4954,-3.5021,-3.5092,-3.5147,-3.5275,-3.5272,-3.5336,-3.531,-3.5436,-3.532,-3.5329,-3.5311,-3.5306,-3.5314,-3.5459,-3.5463,-3.5466,-3.5468,0,-3.4922,-3.4906,-3.4967,-3.5025,-3.5076,-3.512,-3.5158,-3.5199,-3.5162,-3.5217,-3.5294,-3.5337,-3.5422,-3.5494,-3.5551,-3.5564,-3.5511,-3.5505,-3.5533,-3.5547,-3.5552,-3.5549,-3.5171,-3.5497,-3.5494,-3.5492,-3.549,-3.5489,-3.5141,-3.5213,-3.5238,-3.5309,-3.5333,-3.537,-3.5436,-3.5433,-3.5497,-3.5562,-3.5535,-3.5625,-3.5653,-3.5724,-3.5745,-3.5814,-3.5766,-3.5808,-3.5818,-3.5829,-3.5842,-3.5541,-3.5825,-3.5824,-3.5823,-3.5823,-3.5822,0,-3.5435,-3.5447,-3.5512,-3.5566,-3.5622,-3.5565,-3.5604,-3.5654,-3.5733,-3.5763,-3.5818,-3.5907,-3.5976,-3.5977,-3.6041,-3.6096,-3.6073,-3.6115,-3.611,-3.6114,-3.5882,-3.5851,-3.6132,-3.6132,-3.6132,-3.6132,-3.6132,-3.6132,-3.5595,-3.5714,-3.5701,-3.5831,-3.5841,-3.5927,-3.5954,-3.5988,-3.6011,-3.6113,-3.6169,-3.6169,-3.6187,-3.6252,-3.6312,-3.6311,-3.6337,-3.6388,-3.6377,-3.6161,-3.613,-3.6101,-3.6071,-3.6394,-3.6395,-3.6603,-3.6605,-3.6606]},{"header":{"parameterUnit":"m.s-1","parameterCategory":1,"la1":30.2991,"la2":30.254,"lo1":-89.0895,"lo2":-89.0444,"dx":0.0017,"dy":0.0017,"nx":28,"ny":28,"refTime":"2022-11-17T15:00:00:Z","depth":0,"parameterNumber":3,"parameterNumberName":"V-component_of_WINDS"},"data":[0,0,0,0,0,0,0,0,0,0,0,0,0,0,0,0,0,0,0,0,0,0,0,0,0,0,0,0,0,0,0,0,0,0,0,0,0,0,0,0,0,0,0,0,0,0,0,0,0,0,0,0,0,0,0,0,0,0,-4.4728,-4.4729,0,-4.4804,-4.4805,-4.4806,-4.4749,-4.4746,-4.4744,-4.4741,-4.4815,-4.4819,-4.4824,0,0,0,0,0,0,0,0,0,0,0,0,0,-4.4527,-4.4531,-4.4728,-4.4729,-4.473,-4.4804,-4.4805,-4.4806,-4.4749,-4.4746,-4.4743,-4.474,-4.4814,-4.4819,-4.4824,0,0,0,0,0,0,0,0,0,0,0,0,0,-4.461,-4.4532,-4.4728,-4.471,-4.471,-4.4804,-4.4805,-4.4807,-4.475,-4.4746,-4.4742,-4.4739,-4.4812,-4.4818,-4.4825,-4.4939,0,0,-4.4845,-4.4847,0,0,0,0,0,0,0,0,-4.4605,-4.4617,-4.4712,-4.4712,-4.4711,-4.4763,-4.4761,-4.4851,-4.4751,-4.4734,-4.4741,-4.4737,-4.4801,-4.4808,-4.483,-4.4943,-4.4946,-4.4845,-4.4849,-4.4852,-4.4854,0,0,0,0,0,0,0,-4.4599,-4.4613,-4.4758,-4.4713,-4.4713,-4.4697,-4.4704,-4.4778,-4.4787,-4.4735,-4.4731,-4.4742,-4.48,-4.4824,-4.4832,-4.4947,-4.4845,-4.4851,-4.4855,-4.4857,-4.5154,-4.5158,0,0,0,0,0,0,-4.4596,-4.4609,-4.4756,-4.476,-4.4648,-4.4703,-4.4712,-4.475,-4.4786,-4.4788,-4.4745,-4.4739,-4.4815,-4.4824,-4.4834,-4.4969,-4.4852,-4.4858,-4.4861,-4.515,-4.5155,-4.516,0,0,0,0,0,0,-4.4592,-4.461,-4.4752,-4.4684,-4.4701,-4.4711,-4.4754,-4.4754,-4.4778,-4.4794,-4.4794,-4.4768,-4.4812,-4.4825,-4.4913,-4.497,-4.4861,-4.4867,-4.5146,-4.5152,-4.5158,-4.524,0,0,0,0,0,0,-4.4586,-4.4608,-4.4654,-4.4685,-4.4705,-4.4833,-4.4758,-4.4758,-4.479,-4.4783,-4.4816,-4.4818,-4.481,-4.4904,-4.492,-4.4977,-4.4872,-4.5141,-4.5149,-4.5156,-4.5232,-4.5248,-4.5262,0,0,0,0,0,-4.4579,-4.4673,-4.4656,-4.4674,-4.4761,-4.4836,-4.4847,-4.4838,-4.4795,-4.4839,-4.4848,-4.4817,-4.4962,-4.4914,-4.4931,-4.4991,-4.5137,-4.5146,-4.5155,-4.5226,-4.5245,-4.5261,0,0,0,0,0,0,-4.4647,-4.4677,-4.4658,-4.4766,-4.4799,-4.4826,-4.4882,-4.4859,-4.4904,-4.4895,-4.488,-4.4888,-4.4981,-4.4995,-4.494,-4.5102,-4.5042,-4.5055,-4.509,-4.5109,-4.5123,-4.5117,-4.4877,0,0,0,0,0,-4.4675,-4.4735,-4.4757,-4.4849,-4.4867,-4.4872,-4.4904,-4.4894,-4.4927,-4.494,-4.4956,-4.4988,-4.504,-4.5075,-4.5125,-4.5234,-4.5239,-4.5284,-4.5299,-4.5311,-4.5322,-4.5378,-4.5397,-4.519,-4.5189,-4.5189,0,0,-4.4732,-4.4756,-4.4794,-4.4864,-4.4888,-4.4948,-4.4884,-4.4951,-4.4994,-4.495,-4.5034,-4.5047,-4.5081,-4.518,-4.5225,-4.5195,-4.538,-4.5322,-4.5332,-4.5336,-4.5389,-4.5409,-4.5426,-4.5196,-4.5195,-4.5194,0,0,-4.4867,-4.4892,-4.4971,-4.4997,-4.5035,-4.5037,-4.5056,-4.5087,-4.5094,-4.5178,-4.5146,-4.5196,-4.5288,-4.5313,-4.5338,-4.5481,-4.5452,-4.5497,-4.5574,-4.5629,-4.5645,-4.566,-4.5708,-4.5726,-4.5508,-4.5508,-4.5509,0,-4.4933,-4.5024,-4.5014,-4.5083,-4.5113,-4.5077,-4.5155,-4.518,-4.5232,-4.5252,-4.5219,-4.5331,-4.5352,-4.5455,-4.549,-4.5512,-4.5531,-4.5493,-4.5644,-4.5658,-4.5672,-4.5718,-4.5736,-4.5513,-4.5513,-4.5512,-4.5512,0,-4.5102,-4.5165,-4.5224,-4.5276,-4.5313,-4.5386,-4.5385,-4.5424,-4.541,-4.5415,-4.55,-4.5524,-4.5576,-4.56,-4.5588,-4.5701,-4.5681,-4.5646,-4.5585,-4.5697,-4.574,-4.5758,-4.5521,-4.5519,-4.5517,-4.5516,0,0,-4.5282,-4.5327,-4.5348,-4.537,-4.5409,-4.5457,-4.5527,-4.558,-4.5611,-4.5648,-4.5705,-4.5783,-4.575,-4.5778,-4.5768,-4.5817,-4.5925,-4.5775,-4.5776,-4.5801,-4.6049,-4.6074,-4.6095,-4.5907,-4.5911,-4.5913,-4.6045,0,-4.5417,-4.5542,-4.5534,-4.565,-4.5707,-4.5672,-4.5733,-4.5762,-4.5769,-4.5816,-4.5823,-4.5877,-4.5831,-4.5848,-4.5894,-4.5902,-4.5975,-4.5893,-4.5958,-4.596,-4.5949,-4.6118,-4.6145,-4.6268,-4.6062,-4.6065,-4.6067,0,-4.5592,-4.5635,-4.5757,-4.5785,-4.5809,-4.5864,-4.591,-4.5957,-4.5988,-4.5989,-4.6021,-4.6002,-4.607,-4.6009,-4.6102,-4.6046,-4.6072,-4.608,-4.6084,-4.6089,-4.602,-4.6125,-4.6308,-4.6325,-4.6094,-4.6092,-4.609,0,-4.5708,-4.5797,-4.5881,-4.5901,-4.5937,-4.5976,-4.5992,-4.602,-4.6051,-4.6091,-4.6111,-4.6158,-4.6183,-4.6219,-4.6212,-4.6169,-4.6307,-4.6245,-4.6307,-4.6307,-4.6337,-4.6335,-4.6525,-4.6357,-4.6356,-4.6356,-4.6356,0,-4.5859,-4.5934,-4.5933,-4.5985,-4.6067,-4.6057,-4.6138,-4.615,-4.6175,-4.6226,-4.6199,-4.6247,-4.6237,-4.6284,-4.6279,-4.6356,-4.6368,-4.6369,-4.6366,-4.637,-4.637,-4.6386,-4.6377,-4.6361,-4.636,-4.6359,-4.6358,0,-4.6003,-4.6005,-4.6094,-4.612,-4.6129,-4.6188,-4.621,-4.6257,-4.6261,-4.6326,-4.6341,-4.6347,-4.6401,-4.6398,-4.646,-4.6456,-4.655,-4.6538,-4.654,-4.6537,-4.6598,-4.6592,-4.6804,-4.683,-4.6647,-4.6649,-4.665,0,-4.6098,-4.6155,-4.6188,-4.6221,-4.624,-4.6294,-4.6326,-4.6317,-4.6351,-4.639,-4.6432,-4.6484,-4.6525,-4.6613,-4.6622,-4.6668,-4.6656,-4.6727,-4.6662,-4.6664,-4.6654,-4.665,-4.6655,-4.6739,-4.6741,-4.6743,-4.6744,0,-4.6266,-4.6264,-4.6312,-4.636,-4.6399,-4.6436,-4.647,-4.6498,-4.6492,-4.6531,-4.6587,-4.6619,-4.6682,-4.6733,-4.6777,-4.6791,-4.6766,-4.6765,-4.6781,-4.6785,-4.6783,-4.6783,-4.6572,-4.6759,-4.6758,-4.6757,-4.6756,-4.6755,-4.6387,-4.6435,-4.6466,-4.6519,-4.6544,-4.6576,-4.6621,-4.6631,-4.6678,-4.6729,-4.672,-4.6782,-4.681,-4.6866,-4.6885,-4.6932,-4.6906,-4.6931,-4.6936,-4.6942,-4.6948,-4.6777,-4.694,-4.6939,-4.6939,-4.6939,-4.6938,0,-4.6552,-4.657,-4.6619,-4.6667,-4.6709,-4.6683,-4.6719,-4.6754,-4.681,-4.6838,-4.6879,-4.6942,-4.6991,-4.7004,-4.705,-4.7085,-4.7075,-4.7098,-4.7094,-4.7097,-4.697,-4.695,-4.7105,-4.7105,-4.7105,-4.7105,-4.7105,-4.7105,-4.6643,-4.6723,-4.6724,-4.6815,-4.6831,-4.6893,-4.6915,-4.6943,-4.6966,-4.7038,-4.7079,-4.7087,-4.7108,-4.7156,-4.7199,-4.7201,-4.7219,-4.7246,-4.7243,-4.7123,-4.7107,-4.7091,-4.7072,-4.725,-4.7251,-4.7367,-4.7368,-4.7369]}]]